Skip Page Navigation
NASA JPL Caltech
NASA Logo - Jet Propulsion Laboratory + View the NASA Portal
+ Center for Near-Earth Object Studies
JPL Home Earth Solar System Stars & Galaxies Technology
JPL Solar System Dynamics
BODIES ORBITS EPHEMERIDES TOOLS PHYSICAL DATA DISCOVERY FAQ SITE MAP
JPL Small-Body Database Browser
Search: [ help ]  
214533 (2006 LF5)
Classification: Main-belt Asteroid          SPK-ID: 2214533
Ephemeris | Orbit Diagram | Orbital Elements | Mission Design | Physical Parameters | Discovery Circumstances | Close-Approach Data ]

[ show orbit diagram ]
Orbital Elements at Epoch 2459000.5 (2020-May-31.0) TDB
Reference: JPL 11 (heliocentric ecliptic J2000)
 Element Value Uncertainty (1-sigma)   Units 
e .1664022134465984 5.6254e-08  
a 2.240217079682536 1.311e-08 au
q 1.867439999022487 1.3313e-07 au
i 8.226872001797677 4.4359e-06 deg
node 110.2651453028156 4.1742e-05 deg
peri 182.4623540118809 4.5233e-05 deg
M 57.41580092566344 1.8954e-05 deg
tp 2458805.172896686523
(2019-Nov-17.67289669)
6.395e-05 TDB
period 1224.710899424577
3.35
1.0751e-05
2.943e-08
d
yr
n .293946922632226 2.5804e-09 deg/d
Q 2.612994160342584 1.5292e-08 au
  Orbit Determination Parameters
   # obs. used (total)      295  
   data-arc span      6293 days (17.23 yr)  
   first obs. used      2002-03-11  
   last obs. used      2019-06-03  
   planetary ephem.      DE431  
   SB-pert. ephem.      SB431-N16  
   condition code      0  
   norm. resid. RMS      .60922  
   source      ORB  
   producer      Otto Matic  
   solution date      2020-Feb-25 03:12:25  

Additional Information
 Earth MOID = .851298 au 
 Jupiter MOID = 2.56782 au 
 T_jup = 3.603 
[ show covariance matrix ]

Ephemeris | Orbit Diagram | Orbital Elements | Mission Design | Physical Parameters | Discovery Circumstances | Close-Approach Data ]

Physical Parameter Table
Parameter Symbol Value Units Sigma Reference Notes
absolute magnitude H 17.0   n/a MPO475760  

214533 (2006 LF5)          Discovered 2006-Jun-10 by NEAT at Palomar
Reference: 20090509/Numbers.arcLast Updated: 2009-05-11

[ show close-approach data ]
Ephemeris | Orbit Diagram | Orbital Elements | Mission Design | Physical Parameters | Discovery Circumstances | Close-Approach Data ]
ABOUT SSD CREDITS/AWARDS PRIVACY/COPYRIGHT GLOSSARY LINKS
FirstGov 2020-Aug-08 17:28 UT
(server date/time)  
NASA Home Page
Site Manager:   Ryan S. Park
Webmaster  Alan B. Chamberlin